Flag for Canada Weather past 2 weeks in Selkirk, Manitoba, Canada

Now
65 °F

Mild.


Feels Like: 65 °F
Forecast: 62 / 85 °F
Wind: 1 mph from Southwest

Location: Winnipeg The Forks

Current Time: Jul 4, 2015 at 7:21:34 AM

Latest Report: Jul 4, 2015 at 7:00 AM


Visibility: N/A

Pressure: 29.83 "Hg

Humidity: 81%

Dew point: 59 °F

Location of SelkirkLocation

Historic Weather in Selkirk — Graph

°F

Selkirk temperature yesterday

Maximum temperature yesterday: 80 °F (at 5:00 PM)
Minimum temperature yesterday: 66 °F (at 7:00 AM)
Average temperature yesterday: 73 °F

Past Weeks' High & Low Weather Summary

 TemperatureHumidityPressure
High84 °F (Jun 26, 5:00 PM)96% (Jun 25, 4:00 AM)30.08 "Hg (Jun 25, 4:00 AM)
Low55 °F (Jun 19, 6:00 AM)35% (Jun 20, 6:00 PM)29.69 "Hg (Jun 22, 4:00 AM)
Average69 °F67%29.88 "Hg
* Reported Jun 19 6:00 AM — Jul 4 6:00 AM, Selkirk, Weather by CustomWeather, © 2015

Note: Actual official high and low records may vary slightly from our data, if they occured in-between our weather recording intervals... More about our weather records

Advertising

Selkirk weather history for previous 24 hours

 ConditionsComfort  
Time TempWeatherWind HumidityBarometerVisibility
6:00 AM
Sat, Jul 4
65 °FMild.No wind80%29.83 "HgN/A
5:00 AM66 °FMild.2 mph77%29.82 "HgN/A
4:00 AM66 °FMild.1 mph79%29.83 "HgN/A
3:00 AM67 °FMild.2 mph77%29.84 "HgN/A
2:00 AM68 °FMild.1 mph74%29.84 "HgN/A
12:00 AM71 °FMild.2 mph70%29.86 "HgN/A
11:00 PM
Fri, Jul 3
73 °FMild.2 mph65%29.87 "HgN/A
10:00 PM74 °FMild.2 mph59%29.87 "HgN/A
6:00 PM80 °FWarm.2 mph47%29.88 "HgN/A
5:00 PM80 °FWarm.1 mph40%29.89 "HgN/A
4:00 PM78 °FWarm.3 mph50%29.90 "HgN/A
3:00 PM79 °FWarm.3 mph47%29.91 "HgN/A
2:00 PM78 °FWarm.2 mph47%29.92 "HgN/A
1:00 PM78 °FWarm.2 mph54%29.91 "HgN/A
12:00 PM76 °FMild.3 mph55%29.92 "HgN/A
11:00 AM74 °FMild.2 mph66%29.92 "HgN/A
10:00 AM71 °FMild.2 mph66%29.93 "HgN/A
9:00 AM67 °FMild.2 mph75%29.92 "HgN/A
7:00 AM66 °FMild.5 mph79%29.89 "HgN/A
Weather by CustomWeather, © 2015

See weather overviewHow to use our weather pages